Terminal Aerodrome Forecast
Issued by NWS Kansas City/Pleasant Hill, MO

Home | Current Version | Previous Version | Text Only | Print | Product List | Glossary On
Versions: 1 2 3 4 5 6 7 8 9 10 11 12 13 14 15 16 17 18 19 20 21 22 23 24 25 26 27 28 29
000
FTUS43 KEAX 252242 AAA
TAFMCI
TAF AMD
KMCI 252242Z 2523/2618 03008KT P6SM BKN040
     FM260600 06005KT P6SM VCTS SCT011 BKN030CB
     FM261500 08005KT P6SM SCT040 BKN130=

USA.gov is the U.S. government's official web portal to all federal, state and local government web resources and services.